�N����,����,�~����,�C��,���x,�C��,����,���ϕ���,�ő�u�ԕ���,�ő厞����,���˗�,�I�_���x,�n�����x,�ő啗���N��,DTYPE
"16/10/11","00:10",0.0,14.8,88.1,1012.3,299.0,1.1,1.7,328.8,0.00,12.9,20.0,"00:01:20",1
"16/10/11","00:20",0.0,14.9,87.4,1011.9,324.2,1.1,1.9,338.2,0.00,12.9,19.9,"00:13:52",1
"16/10/11","00:30",0.0,14.8,86.8,1011.9,292.7,1.0,1.6,317.7,0.00,12.7,20.0,"00:26:16",1
"16/10/11","00:40",0.0,14.9,86.9,1012.1,316.2,0.8,1.7,335.7,0.00,12.8,19.9,"00:33:44",1
"16/10/11","00:50",0.0,14.8,87.1,1011.9,311.5,0.8,1.6,332.4,0.00,12.7,20.1,"00:45:52",1
"16/10/11","01:00",0.0,14.7,87.5,1011.6,300.7,1.0,1.6,319.8,0.00,12.7,20.0,"00:54:16",1
"16/10/11","01:10",0.0,14.6,88.1,1011.6,306.5,1.1,1.3,322.2,0.00,12.7,19.9,"01:03:52",1
"16/10/11","01:20",0.0,14.5,88.8,1011.9,302.9,1.0,1.4,318.6,0.00,12.7,20.0,"01:15:52",1
"16/10/11","01:30",0.0,14.5,89.7,1011.6,289.9,0.8,1.2,310.4,0.00,12.9,19.9,"01:28:56",1
"16/10/11","01:40",0.0,14.2,90.3,1011.6,316.7,1.2,1.8,326.3,0.00,12.7,19.7,"01:35:52",1
"16/10/11","01:50",0.0,14.1,90.7,1011.6,308.8,1.1,1.4,316.9,0.00,12.6,19.6,"01:44:08",1
"16/10/11","02:00",0.0,13.9,90.9,1011.4,313.8,1.1,1.8,324.1,0.00,12.5,19.7,"01:52:08",1
"16/10/11","02:10",0.0,13.8,91.2,1011.6,297.9,1.0,1.3,310.7,0.00,12.4,19.8,"02:00:32",1
"16/10/11","02:20",0.0,13.6,91.5,1011.9,305.7,1.0,1.6,319.9,0.00,12.3,19.6,"02:10:24",1
"16/10/11","02:30",0.0,13.4,92.0,1011.6,313.7,1.1,1.8,320.7,0.00,12.2,19.7,"02:29:28",1
"16/10/11","02:40",0.0,13.2,92.3,1011.4,305.2,0.8,1.6,314.4,0.00,12.0,19.4,"02:39:52",1
"16/10/11","02:50",0.0,13.1,92.8,1011.4,305.3,1.1,1.6,319.1,0.00,12.0,19.4,"02:40:08",1
"16/10/11","03:00",0.0,12.9,93.5,1011.4,302.3,1.1,1.8,322.1,0.00,11.9,19.6,"02:56:50",1
"16/10/11","03:10",0.0,12.9,94.0,1011.4,293.0,0.8,1.2,310.0,0.00,12.0,19.5,"03:01:28",1
"16/10/11","03:20",0.0,12.9,94.5,1011.4,291.1,1.0,1.4,317.4,0.00,12.1,19.5,"03:14:56",1
"16/10/11","03:30",0.0,12.9,94.7,1011.6,296.9,1.1,1.4,317.1,0.00,12.1,19.2,"03:24:24",1
"16/10/11","03:40",0.0,13.1,94.9,1011.6,301.7,1.1,1.6,316.9,0.00,12.3,19.3,"03:34:48",1
"16/10/11","03:50",0.0,13.2,94.9,1011.4,316.1,1.2,1.9,327.6,0.00,12.4,19.4,"03:44:32",1
"16/10/11","04:00",0.0,13.1,94.6,1011.9,288.1,0.8,1.1,311.5,0.00,12.3,19.1,"03:50:40",1
"16/10/11","04:10",0.0,12.9,94.5,1011.9,293.8,0.7,1.3,306.8,0.00,12.1,19.0,"04:07:20",1
"16/10/11","04:20",0.0,12.7,94.7,1011.6,300.9,1.0,1.4,325.4,0.00,11.9,19.2,"04:11:28",1
"16/10/11","04:30",0.0,12.6,94.9,1011.6,281.1,1.0,1.7,320.9,0.00,11.8,19.1,"04:29:12",1
"16/10/11","04:40",0.0,12.4,95.1,1011.6,286.0,0.7,1.1,310.9,0.00,11.7,19.0,"04:30:56",1
"16/10/11","04:50",0.0,12.3,95.5,1011.6,312.1,1.1,1.8,320.7,0.00,11.6,19.0,"04:46:48",1
"16/10/11","05:00",0.0,12.3,95.5,1011.9,314.2,1.2,1.9,309.9,0.00,11.6,18.8,"04:51:12",1
"16/10/11","05:10",0.0,12.3,95.7,1011.6,318.9,1.3,2.1,320.4,0.00,11.7,18.9,"05:07:14",1
"16/10/11","05:20",0.0,12.3,96.0,1012.1,304.3,1.0,1.8,324.9,0.00,11.7,18.8,"05:17:14",1
"16/10/11","05:30",0.0,12.2,95.9,1012.3,298.3,0.8,1.8,324.0,0.00,11.6,18.7,"05:20:08",1
"16/10/11","05:40",0.0,12.1,96.0,1012.6,294.8,0.8,1.4,327.6,0.00,11.5,18.9,"05:37:36",1
"16/10/11","05:50",0.0,12.0,96.2,1012.6,310.8,1.1,2.1,345.0,0.00,11.5,18.8,"05:41:36",1
"16/10/11","06:00",0.0,11.9,96.2,1012.3,295.3,0.8,1.4,309.7,0.00,11.4,18.7,"05:50:48",1
"16/10/11","06:10",0.0,11.8,96.4,1012.3,296.3,1.1,1.8,313.4,0.00,11.3,18.6,"06:02:32",1
"16/10/11","06:20",0.0,11.8,96.6,1012.3,303.6,1.2,1.7,322.6,0.00,11.3,18.7,"06:16:40",1
"16/10/11","06:30",0.0,12.1,97.1,1012.3,299.2,1.0,1.2,309.3,0.00,11.7,18.7,"06:21:12",1
"16/10/11","06:40",0.0,12.6,96.9,1012.8,312.5,0.8,1.3,336.6,0.00,12.2,18.6,"06:34:16",1
"16/10/11","06:50",0.0,13.4,95.1,1012.6,311.8,0.7,1.2,324.6,0.02,12.7,18.5,"06:40:08",1
"16/10/11","07:00",0.0,14.1,91.7,1012.6,277.7,0.7,1.1,259.7,0.02,12.8,18.5,"06:52:00",1
"16/10/11","07:10",0.0,15.3,88.8,1012.6,273.5,0.6,1.3,252.7,0.03,13.5,18.6,"07:03:04",1
"16/10/11","07:20",0.0,15.7,85.9,1012.8,283.4,0.7,1.2,276.3,0.02,13.4,18.6,"07:10:16",1
"16/10/11","07:30",0.0,16.5,85.2,1012.8,317.9,0.7,1.2,331.8,0.06,14.0,18.7,"07:21:12",1
"16/10/11","07:40",0.0,16.2,83.7,1013.5,340.8,1.1,1.7,343.6,0.08,13.5,18.7,"07:35:12",1
"16/10/11","07:50",0.0,16.4,82.4,1013.5,302.9,0.6,1.6,327.0,0.05,13.4,18.9,"07:40:48",1
"16/10/11","08:00",0.0,17.1,81.5,1013.5,313.5,0.5,1.3,346.5,0.10,14.0,18.7,"07:55:12",1
"16/10/11","08:10",0.0,17.7,77.1,1013.3,293.0,0.3,1.2,331.6,0.15,13.7,19.1,"08:00:24",1
"16/10/11","08:20",0.0,18.7,73.3,1013.8,266.3,0.5,1.8,221.6,0.24,13.9,19.1,"08:19:44",1
"16/10/11","08:30",0.0,19.3,71.5,1013.5,167.4,0.3,1.4,201.7,0.26,14.1,19.2,"08:20:16",1
"16/10/11","08:40",0.0,19.3,69.0,1013.3,350.6,0.7,2.1,18.0,0.26,13.5,19.5,"08:38:16",1
"16/10/11","08:50",0.0,19.3,67.4,1013.0,12.1,1.1,2.8,46.6,0.24,13.2,19.6,"08:42:08",1
"16/10/11","09:00",0.0,19.9,64.1,1013.3,24.2,1.0,2.1,61.3,0.33,13.0,19.7,"08:52:00",1
"16/10/11","09:10",0.0,20.3,64.4,1012.6,348.1,0.6,2.2,349.2,0.33,13.4,20.1,"09:04:40",1
"16/10/11","09:20",0.0,20.4,62.7,1012.1,253.0,0.7,1.8,235.0,0.36,13.1,20.1,"09:14:32",1
"16/10/11","09:30",0.0,20.2,63.0,1012.6,239.3,0.6,1.6,235.5,0.22,13.0,20.1,"09:20:48",1
"16/10/11","09:40",0.0,19.7,63.5,1012.1,275.8,0.8,2.1,205.0,0.20,12.6,20.4,"09:31:28",1
"16/10/11","09:50",0.0,20.0,63.3,1012.1,5.4,0.5,1.7,4.8,0.20,12.9,20.5,"09:42:48",1
"16/10/11","10:00",0.0,19.8,64.7,1011.9,8.2,0.6,1.7,2.6,0.14,13.0,20.6,"09:54:56",1
"16/10/11","10:10",0.0,19.9,64.4,1011.9,6.6,0.8,2.0,359.5,0.17,13.0,20.9,"10:02:40",1
"16/10/11","10:20",0.0,19.7,67.2,1011.6,338.9,0.8,2.4,338.8,0.14,13.5,20.9,"10:19:44",1
"16/10/11","10:30",0.0,19.9,68.1,1011.9,296.8,0.8,2.5,340.5,0.16,13.9,21.1,"10:21:20",1
"16/10/11","10:40",0.0,20.0,69.4,1011.4,257.9,1.1,2.5,226.3,0.23,14.3,20.8,"10:36:40",1
"16/10/11","10:50",0.0,20.0,69.4,1011.4,298.9,0.8,2.0,327.8,0.17,14.3,21.1,"10:47:36",1
"16/10/11","11:00",0.0,19.7,69.7,1011.2,276.3,0.8,1.8,345.6,0.14,14.1,21.1,"10:50:40",1
"16/10/11","11:10",0.0,19.9,68.2,1010.9,274.6,0.7,1.2,330.7,0.15,13.9,21.3,"11:05:12",1
"16/10/11","11:20",0.0,20.0,68.6,1010.9,282.7,0.7,1.4,328.8,0.15,14.1,21.2,"11:13:20",1
"16/10/11","11:30",0.0,20.2,68.8,1010.7,291.9,0.7,1.8,241.9,0.15,14.3,21.3,"11:24:56",1
"16/10/11","11:40",0.0,20.5,69.8,1010.7,313.4,0.7,1.6,312.4,0.16,14.8,21.3,"11:36:40",1
"16/10/11","11:50",0.0,20.7,64.8,1010.2,347.3,0.8,2.0,342.1,0.21,13.9,21.5,"11:41:20",1
"16/10/11","12:00",0.0,20.5,65.2,1010.2,328.7,1.2,3.4,341.8,0.16,13.8,21.6,"11:59:04",1
"16/10/11","12:10",0.0,20.3,65.4,1010.0,346.1,1.6,3.1,351.5,0.13,13.6,21.5,"12:09:12",1
"16/10/11","12:20",0.0,20.4,67.8,1010.4,293.3,0.8,2.0,318.4,0.15,14.3,21.6,"12:10:02",1
"16/10/11","12:30",0.0,20.1,68.5,1010.0,276.5,1.1,2.5,239.6,0.12,14.2,21.5,"12:25:04",1
"16/10/11","12:40",0.0,20.3,68.1,1009.7,316.7,1.1,2.8,336.0,0.09,14.3,21.6,"12:31:52",1
"16/10/11","12:50",0.0,20.1,67.5,1010.2,293.9,0.8,1.7,332.8,0.12,13.9,21.5,"12:48:40",1
"16/10/11","13:00",0.0,20.3,69.1,1010.0,278.9,0.8,1.6,255.7,0.14,14.5,21.7,"12:58:40",1
"16/10/11","13:10",0.0,20.2,69.2,1010.0,312.0,1.0,2.0,333.5,0.11,14.4,21.4,"13:06:08",1
"16/10/11","13:20",0.0,20.4,69.5,1009.7,306.2,1.0,2.0,310.6,0.11,14.7,21.7,"13:14:56",1
"16/10/11","13:30",0.0,20.2,69.1,1009.5,292.0,1.0,1.7,321.2,0.12,14.4,21.6,"13:20:40",1
"16/10/11","13:40",0.0,20.1,68.1,1009.3,294.2,0.7,1.8,250.3,0.10,14.1,21.6,"13:36:08",1
"16/10/11","13:50",0.0,20.2,69.9,1009.0,286.7,1.0,1.7,242.1,0.12,14.6,21.7,"13:41:52",1
"16/10/11","14:00",0.0,20.5,68.3,1009.0,300.4,0.8,1.8,355.5,0.09,14.5,21.8,"13:50:24",1
"16/10/11","14:10",0.0,20.6,67.8,1008.8,298.8,0.7,1.3,323.0,0.10,14.5,21.7,"14:04:08",1
"16/10/11","14:20",0.0,20.4,69.9,1009.3,302.4,0.8,1.9,344.1,0.12,14.8,21.7,"14:18:16",1
"16/10/11","14:30",0.0,20.6,70.4,1009.0,306.2,0.7,1.7,342.7,0.11,15.1,21.7,"14:26:00",1
"16/10/11","14:40",0.0,20.4,69.0,1009.3,330.8,1.3,2.9,342.9,0.12,14.6,21.9,"14:37:36",1
"16/10/11","14:50",0.0,20.4,67.8,1009.5,334.6,1.6,3.5,347.2,0.11,14.3,21.8,"14:44:40",1
"16/10/11","15:00",0.0,20.6,67.7,1009.5,311.9,1.2,2.1,353.0,0.09,14.5,21.7,"14:53:52",1
"16/10/11","15:10",0.0,20.5,68.4,1009.5,323.9,1.5,3.1,352.2,0.11,14.5,21.7,"15:08:48",1
"16/10/11","15:20",0.0,20.5,67.3,1009.3,341.0,1.3,2.9,330.5,0.07,14.3,21.6,"15:17:52",1
"16/10/11","15:30",0.0,20.2,67.5,1009.7,338.8,1.6,3.3,340.4,0.06,14.0,21.7,"15:27:52",1
"16/10/11","15:40",0.0,20.1,67.8,1009.7,336.1,1.5,2.7,339.6,0.06,14.0,21.9,"15:39:04",1
"16/10/11","15:50",0.0,19.8,68.6,1009.7,342.9,1.8,3.5,350.7,0.05,13.9,21.6,"15:44:00",1
"16/10/11","16:00",0.0,19.5,68.4,1010.0,346.5,1.8,4.0,344.8,0.03,13.6,21.6,"15:52:24",1
"16/10/11","16:10",0.0,19.2,68.3,1010.0,343.2,2.1,4.0,347.2,0.03,13.3,21.6,"16:01:28",1
"16/10/11","16:20",0.0,19.0,69.1,1010.2,324.7,1.7,4.1,344.8,0.01,13.3,21.4,"16:12:08",1
"16/10/11","16:30",0.0,18.7,70.3,1010.2,324.1,1.6,4.0,352.1,0.00,13.2,21.5,"16:25:44",1
"16/10/11","16:40",0.0,18.5,71.2,1010.7,333.4,2.0,4.7,344.5,0.01,13.2,21.4,"16:30:56",1
"16/10/11","16:50",0.0,18.3,70.8,1010.4,338.5,1.8,4.3,346.3,0.01,13.0,21.2,"16:41:36",1
"16/10/11","17:00",0.0,18.2,70.5,1010.4,345.8,2.3,5.5,350.9,0.00,12.8,21.2,"16:50:02",1
"16/10/11","17:10",0.0,18.0,70.4,1011.4,344.9,2.5,4.5,3.8,0.00,12.6,21.2,"17:06:24",1
"16/10/11","17:20",0.0,17.6,71.2,1011.2,340.7,2.1,5.4,346.4,0.00,12.4,20.9,"17:17:44",1
"16/10/11","17:30",0.0,17.5,71.4,1011.2,342.7,2.0,5.2,331.7,0.00,12.3,20.9,"17:24:32",1
"16/10/11","17:40",0.0,17.6,70.0,1010.9,5.4,1.3,3.3,2.1,0.00,12.1,20.8,"17:33:12",1
"16/10/11","17:50",0.0,17.5,70.4,1011.4,357.9,1.1,2.2,8.8,0.00,12.1,20.8,"17:46:08",1
"16/10/11","18:00",0.0,17.2,72.4,1011.6,340.3,1.2,2.4,338.5,0.00,12.2,20.8,"17:51:44",1
"16/10/11","18:10",0.0,17.0,74.5,1011.4,317.1,0.7,1.1,305.7,0.00,12.5,20.7,"18:03:12",1
"16/10/11","18:20",0.0,16.8,76.4,1011.4,305.9,0.7,1.2,341.4,0.00,12.7,20.7,"18:13:36",1
"16/10/11","18:30",0.0,16.7,76.3,1011.2,331.0,1.0,2.2,335.8,0.00,12.6,20.6,"18:28:08",1
"16/10/11","18:40",0.0,16.6,77.5,1010.7,299.8,1.0,1.8,353.9,0.00,12.7,20.5,"18:39:44",1
"16/10/11","18:50",0.0,16.3,79.8,1010.9,303.8,1.1,1.9,327.6,0.00,12.8,20.5,"18:40:32",1
"16/10/11","19:00",0.0,16.1,80.6,1011.4,314.0,1.2,2.1,342.5,0.00,12.8,20.4,"18:53:44",1
"16/10/11","19:10",0.0,16.1,80.1,1011.4,322.2,1.2,2.5,343.1,0.00,12.7,20.4,"19:00:02",1
"16/10/11","19:20",0.0,16.2,80.1,1011.6,309.1,1.2,2.2,349.6,0.00,12.8,20.2,"19:12:00",1
"16/10/11","19:30",0.0,16.1,79.5,1011.4,292.1,0.8,1.2,280.5,0.00,12.6,20.2,"19:21:52",1
"16/10/11","19:40",0.0,16.1,79.1,1011.4,274.6,0.7,2.1,334.4,0.00,12.5,20.2,"19:30:48",1
"16/10/11","19:50",0.0,16.1,79.2,1011.4,275.7,1.1,2.5,230.3,0.00,12.5,20.4,"19:49:12",1
"16/10/11","20:00",0.0,16.0,78.3,1011.9,275.8,1.0,1.6,301.3,0.00,12.3,20.2,"19:51:36",1
"16/10/11","20:10",0.0,15.9,77.5,1011.6,291.9,0.8,1.6,315.8,0.00,12.0,20.0,"20:00:32",1
"16/10/11","20:20",0.0,15.8,77.4,1011.6,307.9,1.2,2.6,329.3,0.00,11.9,20.2,"20:10:24",1
"16/10/11","20:30",0.0,16.0,77.5,1012.1,304.4,1.2,2.2,309.1,0.00,12.1,20.0,"20:24:40",1
"16/10/11","20:40",0.0,15.8,77.6,1011.6,315.6,1.3,2.2,310.6,0.00,11.9,20.0,"20:36:16",1
"16/10/11","20:50",0.0,15.5,79.0,1011.9,323.7,1.2,2.1,344.1,0.00,11.9,20.0,"20:40:56",1
"16/10/11","21:00",0.0,14.9,81.0,1011.9,287.3,0.8,1.4,308.5,0.00,11.7,19.7,"20:57:52",1
"16/10/11","21:10",0.0,14.5,82.6,1012.3,296.3,0.8,1.3,332.4,0.00,11.6,19.8,"21:06:32",1
"16/10/11","21:20",0.0,14.4,83.5,1012.3,286.2,0.8,1.3,303.3,0.00,11.7,19.6,"21:12:00",1
"16/10/11","21:30",0.0,14.2,83.9,1012.1,283.9,1.0,1.4,310.6,0.00,11.6,19.7,"21:29:36",1
"16/10/11","21:40",0.0,13.7,85.8,1011.6,322.9,1.5,2.5,333.1,0.00,11.4,19.5,"21:38:00",1
"16/10/11","21:50",0.0,13.5,87.7,1011.9,308.8,1.3,1.9,311.3,0.00,11.5,19.5,"21:45:28",1
"16/10/11","22:00",0.0,13.4,88.4,1011.6,298.1,1.0,1.4,305.8,0.00,11.6,19.5,"21:56:16",1
"16/10/11","22:10",0.0,13.2,89.3,1011.6,286.9,1.1,1.4,322.7,0.00,11.5,19.4,"22:00:16",1
"16/10/11","22:20",0.0,13.3,89.1,1011.6,296.0,1.0,1.9,315.1,0.00,11.6,19.3,"22:16:14",1
"16/10/11","22:30",0.0,13.6,88.7,1011.4,305.1,1.3,2.2,312.5,0.00,11.8,19.2,"22:28:00",1
"16/10/11","22:40",0.0,14.0,87.8,1011.6,311.3,1.5,2.4,318.5,0.00,12.1,19.0,"22:30:56",1
"16/10/11","22:50",0.0,14.0,87.2,1011.9,296.4,1.1,1.8,310.2,0.00,11.9,19.3,"22:41:20",1
"16/10/11","23:00",0.0,13.6,87.7,1011.6,298.1,1.0,1.3,295.1,0.00,11.6,19.0,"22:52:08",1
"16/10/11","23:10",0.0,13.2,88.8,1011.6,296.7,1.0,1.6,318.0,0.00,11.4,18.9,"23:08:30",1
"16/10/11","23:20",0.0,13.2,89.8,1011.6,300.2,1.1,1.9,311.9,0.00,11.6,18.9,"23:18:02",1
"16/10/11","23:30",0.0,13.1,90.3,1011.4,287.3,0.8,1.4,315.8,0.00,11.6,18.8,"23:25:44",1
"16/10/11","23:40",0.0,13.0,90.6,1011.9,312.1,0.8,1.6,320.6,0.00,11.5,18.8,"23:39:36",1
"16/10/11","23:50",0.0,12.6,90.9,1011.6,293.7,1.1,1.6,321.6,0.00,11.2,18.7,"23:40:08",1
"16/10/11","24:00",0.0,12.3,91.9,1011.9,308.4,0.7,1.4,322.7,0.00,11.1,18.8,"23:52:24",1
